Location: Unspecified
(0.0000°N, 0.0000°E)
Time: 14:10:23
(UTC+00:00)

Courier 1B - Pass Details

Date: 25 November 2019
Orbit: 963 x 1209 km, 28.3° (Epoch: 08 December)

Event Time Altitude Azimuth Distance (km) Brightness Sun altitude
Rises 12:12:37 0° 287° (WNW) 3,632 10.5 68.3°
Reaches altitude 10° 12:15:22 10° 281° (W) 2,684 10.0 68.1°
Maximum altitude 12:21:29 45° 209° (SSW) 1,292 9.7 67.6°
Drops below altitude 10° 12:27:46 10° 138° (SE) 2,748 10.1 67.0°
Sets 12:30:37 0° 132° (SE) 3,728 10.6 66.7°
